Weather History for KMHT - October, 2012

Change the Weather History Date:

Sunday, October 21, 2012

  Actual Average Record
Temperature  
Mean Temperature 53 °F -  
Max Temperature 63 °F 57 °F 77 °F (1965)
Min Temperature 44 °F 34 °F 21 °F (1972)
Degree Days  
Heating Degree Days 12    
Growing Degree Days 3 (Base 50)    
Moisture  
Dew Point 39 °F    
Average Humidity 58    
Maximum Humidity 81    
Minimum Humidity 36    
Precipitation  
Precipitation 0.00 in - - ()
Sea Level Pressure  
Sea Level Pressure 29.85 in    
Wind  
Wind Speed 6 mph (WSW)    
Max Wind Speed 16 mph    
Max Gust Speed 25 mph    
Visibility 10 miles    
Events      
Averages and records for this station are not official NWS values.
T = Trace of Precipitation, MM = Missing Value Source: NWS Daily Summary

Daily Weather History Graph

Daily Weather History Graph

Search for Another Location

Airport or City:

Trip Planner

Search our weather history database for the weather conditions in past years. The results will help you decide how hot, cold, wet, or windy it might be!

Date:

Astronomy

Oct. 21, 2012 Rise Set
Actual Time 7:06 AM EDT 5:52 PM EDT
Civil Twilight 6:38 AM EDT 6:21 PM EDT
Nautical Twilight 6:05 AM EDT 6:54 PM EDT
Astronomical Twilight 5:32 AM EDT 7:27 PM EDT
Moon 1:28 PM EDT (10/21) 11:41 PM EDT (10/21)
Length of Visible Light 11h 43m
Length of Day
10h 45m
Waxing Crescent, 45% of the Moon is Illuminated
Oct 21
Waxing Crescent
Oct 21
First Quarter
Oct 29
Full
Nov 6
Last Quarter
Nov 13
New

Hourly Weather History & Observations

Time (EDT) Temp. Windchill Dew Point Humidity Pressure Visibility Wind Dir Wind Speed Gust Speed Precip Events Conditions
12:53 AM 54.0 °F - 41.0 °F 62% 29.77 in 10.0 mi WSW 3.5 mph - N/A   Clear
1:53 AM 53.1 °F - 39.0 °F 59% 29.78 in 10.0 mi WSW 5.8 mph - N/A   Clear
2:53 AM 52.0 °F - 37.9 °F 59% 29.79 in 10.0 mi West 3.5 mph - N/A   Clear
3:53 AM 48.9 °F - 37.9 °F 66% 29.80 in 10.0 mi Calm Calm - N/A   Clear
4:53 AM 48.0 °F - 39.0 °F 71% 29.82 in 10.0 mi South 3.5 mph - N/A   Clear
5:53 AM 44.6 °F 43.1 °F 39.2 °F 81% 29.79 in 10.0 mi South 3.5 mph - N/A   Clear
6:53 AM 46.0 °F 43.1 °F 39.0 °F 76% 29.85 in 10.0 mi SW 5.8 mph - N/A   Clear
7:53 AM 44.1 °F 42.5 °F 37.9 °F 79% 29.86 in 10.0 mi SSW 3.5 mph - N/A   Clear
8:53 AM 48.9 °F - 39.0 °F 69% 29.87 in 10.0 mi South 4.6 mph - N/A   Clear
9:53 AM 53.1 °F - 39.9 °F 61% 29.87 in 10.0 mi South 5.8 mph - N/A   Clear
10:53 AM 57.0 °F - 39.0 °F 51% 29.87 in 10.0 mi West 10.4 mph 18.4 mph N/A   Mostly Cloudy
11:53 AM 59.0 °F - 39.0 °F 48% 29.86 in 10.0 mi WNW 11.5 mph 17.3 mph N/A   Mostly Cloudy
12:53 PM 60.1 °F - 37.9 °F 44% 29.85 in 10.0 mi WNW 10.4 mph 19.6 mph N/A   Mostly Cloudy
1:53 PM 61.0 °F - 34.0 °F 36% 29.84 in 10.0 mi NW 15.0 mph 24.2 mph N/A   Mostly Cloudy
2:53 PM 61.0 °F - 35.1 °F 38% 29.84 in 10.0 mi WNW 12.7 mph 17.3 mph N/A   Mostly Cloudy
3:53 PM 62.1 °F - 36.0 °F 38% 29.85 in 10.0 mi West 16.1 mph 25.3 mph N/A   Overcast
4:53 PM 60.1 °F - 37.9 °F 44% 29.85 in 10.0 mi West 10.4 mph 16.1 mph N/A   Mostly Cloudy
5:53 PM 59.0 °F - 39.0 °F 48% 29.86 in 10.0 mi West 6.9 mph - N/A   Overcast
6:53 PM 57.0 °F - 39.0 °F 51% 29.88 in 10.0 mi West 5.8 mph - N/A   Clear
7:53 PM 55.9 °F - 39.9 °F 55% 29.88 in 10.0 mi West 9.2 mph - N/A   Mostly Cloudy
8:53 PM 55.0 °F - 39.9 °F 57% 29.89 in 10.0 mi Calm Calm - N/A   Partly Cloudy
9:53 PM 54.0 °F - 41.0 °F 62% 29.90 in 10.0 mi West 4.6 mph - N/A   Clear
10:53 PM 53.1 °F - 42.1 °F 66% 29.89 in 10.0 mi Calm Calm - N/A   Clear
11:53 PM 52.0 °F - 42.1 °F 69% 29.89 in 10.0 mi West 5.8 mph - N/A   Clear